Tacoma, WA

8:04 AM PST on December 06, 2016 (GMT -0800)
McChord Air Force Base

Weather History for KTCM - March, 2015

Change the Weather History Date:

Thursday, March 5, 2015

  Actual Average Record
Temperature  
Mean Temperature 42 °F -  
Max Temperature 57 °F 49 °F 64 °F (2016)
Min Temperature 27 °F 33 °F 13 °F (1955)
Degree Days  
Heating Degree Days 23    
Moisture  
Dew Point 32 °F    
Average Humidity 72    
Maximum Humidity 99    
Minimum Humidity 33    
Precipitation  
Precipitation 0.00 in - - ()
Sea Level Pressure  
Sea Level Pressure 30.37 in    
Wind  
Wind Speed 2 mph (SSW)    
Max Wind Speed 6 mph    
Max Gust Speed -    
Visibility 10 miles    
Events      
Averages and records for this station are not official NWS values.
T = Trace of Precipitation, MM = Missing Value Source: NWS Daily Summary

Daily Weather History Graph

Daily Weather History Graph

Search for Another Location

Airport or City:

Trip Planner

Search our weather history database for the weather conditions in past years. The results will help you decide how hot, cold, wet, or windy it might be!

Date:

Astronomy

Mar. 05, 2015 Rise Set
Actual Time 6:42 AM PST 6:00 PM PST
Civil Twilight 6:12 AM PST 6:31 PM PST
Nautical Twilight 5:36 AM PST 7:06 PM PST
Astronomical Twilight 5:01 AM PST 7:42 PM PST
Moon 6:20 PM PST (3/5) 6:30 AM PST (3/5)
Length of Visible Light 12h 19m
Length of Day
11h 18m
Full, 100% of the Moon is Illuminated
Mar 5
Full
Mar 13
Last Quarter
Mar 20
New
Mar 27
First Quarter
Apr 4
Full

Hourly Weather History & Observations

Time (PST) Temp. Windchill Dew Point Humidity Pressure Visibility Wind Dir Wind Speed Gust Speed Precip Events Conditions
12:58 AM 30.6 °F - 29.1 °F 94% 30.32 in 10.0 mi Calm Calm - N/A   Partly Cloudy
1:58 AM 29.1 °F - 28.0 °F 96% 30.32 in 10.0 mi South 2.3 mph - N/A   Overcast
2:58 AM 30.4 °F 26.9 °F 30.0 °F 99% 30.32 in 10.0 mi South 3.5 mph - N/A   Scattered Clouds
3:58 AM 29.1 °F - 28.9 °F 99% 30.32 in 10.0 mi SSW 2.3 mph - N/A   Mostly Cloudy
4:58 AM 28.4 °F - 28.0 °F 99% 30.33 in 10.0 mi South 2.3 mph - N/A   Clear
5:58 AM 28.8 °F - 28.6 °F 99% 30.34 in 10.0 mi SSE 2.3 mph - N/A   Clear
6:58 AM 27.5 °F - 27.3 °F 99% 30.36 in 10.0 mi South 2.3 mph - N/A   Clear
7:58 AM 31.5 °F - 31.3 °F 99% 30.37 in 10.0 mi South 1.2 mph - N/A   Partly Cloudy
8:58 AM 37.9 °F - 33.3 °F 83% 30.39 in 10.0 mi SW 2.3 mph - N/A   Clear
9:58 AM 43.9 °F - 33.6 °F 67% 30.40 in 10.0 mi NNW 2.3 mph - N/A   Clear
10:58 AM 48.7 °F - 33.4 °F 56% 30.40 in 10.0 mi West 4.6 mph - N/A   Clear
11:58 AM 52.3 °F - 30.4 °F 43% 30.40 in 10.0 mi Variable 3.5 mph - N/A   Clear
12:58 PM 55.4 °F - 31.1 °F 40% 30.39 in 10.0 mi NNW 4.6 mph - N/A   Clear
1:58 PM 57.7 °F - 31.8 °F 37% 30.37 in 10.0 mi Variable 3.5 mph - N/A   Clear
2:58 PM 57.9 °F - 28.6 °F 33% 30.37 in 10.0 mi Calm Calm - N/A   Clear
3:58 PM 57.4 °F - 33.6 °F 41% 30.37 in 10.0 mi NNW 4.6 mph - N/A   Clear
4:58 PM 55.9 °F - 33.1 °F 42% 30.37 in 10.0 mi North 5.8 mph - N/A   Clear
5:58 PM 52.2 °F - 31.3 °F 45% 30.38 in 10.0 mi ENE 1.2 mph - N/A   Clear
6:58 PM 47.7 °F - 34.3 °F 60% 30.39 in 10.0 mi South 2.3 mph - N/A   Clear
7:58 PM 44.2 °F - 34.2 °F 68% 30.39 in 10.0 mi Calm Calm - N/A   Clear
8:58 PM 42.4 °F - 36.3 °F 79% 30.40 in 10.0 mi Calm Calm - N/A   Clear
9:58 PM 41.4 °F - 35.2 °F 79% 30.41 in 10.0 mi South 1.2 mph - N/A   Clear
10:58 PM 37.4 °F - 33.8 °F 87% 30.41 in 10.0 mi South 2.3 mph - N/A   Clear
11:58 PM 35.1 °F - 33.3 °F 93% 30.40 in 10.0 mi SSW 2.3 mph - N/A   Clear